Atka, AK

2:58 PM HDT on June 28, 2017 (GMT -0900)
Atka

Weather History for PAAK - March, 2013

Change the Weather History Date:

Thursday, March 14, 2013

  Actual Average (PADK) Record (PADK)
Temperature  
Mean Temperature 36 °F -  
Max Temperature 39 °F 39 °F 47 °F (1962)
Min Temperature 33 °F 28 °F 16 °F (1971)
Degree Days  
Heating Degree Days 29    
Moisture  
Dew Point 30 °F    
Average Humidity 81    
Maximum Humidity 93    
Minimum Humidity 65    
Precipitation  
Precipitation 0.00 in - - ()
Sea Level Pressure  
Sea Level Pressure 30.07 in    
Wind  
Wind Speed 12 mph (WNW)    
Max Wind Speed 17 mph    
Max Gust Speed 25 mph    
Averages and records for this station are not official NWS values.
T = Trace of Precipitation, MM = Missing Value Source: NWS Daily Summary

Daily Weather History Graph

Daily Weather History Graph

Search for Another Location

Airport or City:

Trip Planner

Search our weather history database for the weather conditions in past years. The results will help you decide how hot, cold, wet, or windy it might be!

Date:

Astronomy

Mar. 14, 2013 Rise Set
Actual Time 8:52 AM HDT 8:40 PM HDT
Civil Twilight 8:18 AM HDT 9:14 PM HDT
Nautical Twilight 7:38 AM HDT 9:54 PM HDT
Astronomical Twilight 6:58 AM HDT 10:35 PM HDT
Moon 9:46 AM HDT (3/14) No Moon Set
Length of Visible Light 12h 55m
Length of Day
11h 48m
Waxing Crescent, 10% of the Moon is Illuminated
Mar 14
Waxing Crescent
Mar 19
First Quarter
Mar 27
Full
Apr 2
Last Quarter
Apr 10
New

Hourly Weather History & Observations

Time (HDT) Temp. Windchill Dew Point Humidity Pressure Visibility Wind Dir Wind Speed Gust Speed Precip Events Conditions
12:16 AM 37.4 °F 30.3 °F 33.8 °F 87% 30.10 in - West 10.4 mph - N/A   Unknown
12:36 AM 37.4 °F 29.8 °F 33.8 °F 87% 30.10 in - WNW 11.5 mph - N/A   Overcast
12:56 AM 35.6 °F 25.5 °F 30.2 °F 81% 30.10 in - WNW 17.3 mph - N/A   Overcast
1:16 AM 35.6 °F 26.6 °F 28.4 °F 75% 30.10 in - NW 13.8 mph - N/A   Overcast
1:36 AM 35.6 °F 27.1 °F 28.4 °F 75% 30.11 in - NW 12.7 mph 19.6 mph N/A   Overcast
1:56 AM 35.6 °F 29.2 °F 30.2 °F 81% 30.11 in - NW 8.1 mph - N/A   Overcast
2:16 AM 35.6 °F 27.1 °F 30.2 °F 81% 30.11 in - NNW 12.7 mph - N/A   Overcast
2:36 AM 35.6 °F 26.2 °F 28.4 °F 75% 30.10 in - NNW 15.0 mph 19.6 mph N/A   Overcast
2:56 AM 35.6 °F 27.1 °F 28.4 °F 75% 30.10 in - NNW 12.7 mph 19.6 mph N/A   Overcast
3:16 AM 35.6 °F 27.1 °F 28.4 °F 75% 30.10 in - NNW 12.7 mph - N/A   Overcast
3:36 AM 33.8 °F 24.3 °F 28.4 °F 81% 30.10 in - NNW 13.8 mph - N/A   Mostly Cloudy
3:56 AM 33.8 °F 23.9 °F 28.4 °F 81% 30.10 in - NNW 15.0 mph 21.9 mph N/A   Mostly Cloudy
4:16 AM 33.8 °F 24.8 °F 28.4 °F 81% 30.11 in - NW 12.7 mph 20.7 mph N/A   Mostly Cloudy
4:36 AM 35.6 °F 26.2 °F 28.4 °F 75% 30.10 in - NNW 15.0 mph 19.6 mph N/A   Overcast
4:56 AM 35.6 °F 26.6 °F 28.4 °F 75% 30.10 in - NNW 13.8 mph - N/A   Overcast
5:16 AM 35.6 °F 25.9 °F 28.4 °F 75% 30.09 in - NNW 16.1 mph - N/A   Overcast
5:36 AM 35.6 °F 29.9 °F 28.4 °F 75% 30.09 in - NW 6.9 mph - N/A   Overcast
5:56 AM 35.6 °F 27.5 °F 28.4 °F 75% 30.09 in - NW 11.5 mph - N/A   Overcast
6:16 AM 35.6 °F 26.2 °F 28.4 °F 75% 30.09 in - WNW 15.0 mph 20.7 mph N/A   Overcast
6:36 AM 35.6 °F 26.6 °F 28.4 °F 75% 30.09 in - NW 13.8 mph 20.7 mph N/A   Overcast
6:56 AM 33.8 °F 25.3 °F 26.6 °F 75% 30.10 in - NW 11.5 mph - N/A   Mostly Cloudy
7:16 AM 35.6 °F 27.1 °F 28.4 °F 75% 30.10 in - NW 12.7 mph - N/A   Mostly Cloudy
7:36 AM 35.6 °F 28.0 °F 28.4 °F 75% 30.10 in - NW 10.4 mph - N/A   Overcast
7:56 AM 35.6 °F 27.1 °F 28.4 °F 75% 30.10 in - NW 12.7 mph - N/A   Overcast
8:16 AM 35.6 °F 27.5 °F 28.4 °F 75% 30.10 in - NW 11.5 mph - N/A   Overcast
8:36 AM 35.6 °F 27.5 °F 28.4 °F 75% 30.10 in - NW 11.5 mph - N/A   Overcast
8:56 AM 35.6 °F 29.9 °F 28.4 °F 75% 30.10 in - NW 6.9 mph - N/A   Overcast
9:16 AM 35.6 °F 28.6 °F 30.2 °F 81% 30.10 in - NW 9.2 mph - N/A   Overcast
9:36 AM 35.6 °F 27.5 °F 30.2 °F 81% 30.11 in - WNW 11.5 mph - N/A   Overcast
9:56 AM 35.6 °F 28.0 °F 30.2 °F 81% 30.09 in - WNW 10.4 mph - N/A   Overcast
10:16 AM 35.6 °F 26.6 °F 30.2 °F 81% 30.10 in - WNW 13.8 mph - N/A   Overcast
10:36 AM 35.6 °F 28.6 °F 30.2 °F 81% 30.11 in - WNW 9.2 mph - N/A   Overcast
10:56 AM 37.4 °F 30.3 °F 32.0 °F 81% 30.11 in - WNW 10.4 mph - N/A   Overcast
11:16 AM 35.6 °F 27.5 °F 30.2 °F 81% 30.11 in - NW 11.5 mph - N/A   Overcast
11:36 AM 35.6 °F 28.0 °F 32.0 °F 87% 30.11 in - WNW 10.4 mph - N/A   Overcast
11:56 AM 35.6 °F 28.0 °F 32.0 °F 87% 30.11 in - WNW 10.4 mph - N/A   Unknown
12:16 PM 37.4 °F 29.3 °F 33.8 °F 87% 30.11 in - West 12.7 mph 18.4 mph N/A   Unknown
12:36 PM 37.4 °F 28.9 °F 33.8 °F 87% 30.10 in - WNW 13.8 mph 18.4 mph N/A   Unknown
12:56 PM 37.4 °F 29.8 °F 32.0 °F 81% 30.09 in - WNW 11.5 mph - N/A   Overcast
1:16 PM 37.4 °F 29.3 °F 33.8 °F 87% 30.09 in - WNW 12.7 mph - N/A   Unknown
1:36 PM 37.4 °F 29.3 °F 33.8 °F 87% 30.09 in - WNW 12.7 mph - N/A   Unknown
1:56 PM 37.4 °F 29.3 °F 33.8 °F 87% 30.09 in - West 12.7 mph - N/A   Unknown
2:16 PM 37.4 °F 28.2 °F 33.8 °F 87% 30.09 in - WNW 16.1 mph - N/A   Unknown
2:36 PM 39.2 °F 31.6 °F 33.8 °F 81% 30.08 in - WNW 12.7 mph - N/A   Overcast
2:56 PM 39.2 °F 31.6 °F 33.8 °F 81% 30.08 in - WNW 12.7 mph - N/A   Overcast
3:16 PM 37.4 °F 29.8 °F 33.8 °F 87% 30.07 in - WNW 11.5 mph - N/A   Unknown
3:36 PM 37.4 °F 28.9 °F 33.8 °F 87% 30.06 in - West 13.8 mph 20.7 mph N/A   Unknown
3:56 PM 35.6 °F 27.1 °F 32.0 °F 87% 30.06 in - WNW 12.7 mph - N/A   Unknown
4:16 PM 35.6 °F 27.1 °F 33.8 °F 93% 30.06 in - WNW 12.7 mph 20.7 mph N/A   Unknown
4:36 PM 35.6 °F 26.6 °F 32.0 °F 87% 30.07 in - WNW 13.8 mph - N/A   Unknown
4:56 PM 35.6 °F 27.5 °F 30.2 °F 81% 30.07 in - WNW 11.5 mph - N/A   Overcast
5:16 PM 35.6 °F 27.5 °F 30.2 °F 81% 30.06 in - WNW 11.5 mph - N/A   Mostly Cloudy
5:36 PM 35.6 °F 28.0 °F 32.0 °F 87% 30.06 in - WNW 10.4 mph - N/A   Unknown
5:56 PM 35.6 °F 28.6 °F 32.0 °F 87% 30.05 in - WNW 9.2 mph - N/A   Overcast
6:16 PM 35.6 °F 28.0 °F 28.4 °F 75% 30.04 in - WNW 10.4 mph - N/A   Overcast
6:36 PM 35.6 °F 26.6 °F 30.2 °F 81% 30.04 in - West 13.8 mph - N/A   Overcast
6:56 PM 33.8 °F 27.0 °F 30.2 °F 87% 30.03 in - WNW 8.1 mph - N/A   Unknown
7:16 PM 35.6 °F 30.7 °F 32.0 °F 87% 30.03 in - WNW 5.8 mph - N/A   Unknown
7:36 PM 35.6 °F 30.7 °F 32.0 °F 87% 30.03 in - WNW 5.8 mph - N/A   Unknown
7:56 PM 35.6 °F 31.7 °F 30.2 °F 81% 30.02 in - NW 4.6 mph - N/A   Overcast
8:16 PM 35.6 °F 32.8 °F 32.0 °F 87% 30.00 in - NNW 3.5 mph - N/A   Unknown
8:36 PM 33.8 °F 23.9 °F 30.2 °F 87% 29.99 in - NNW 15.0 mph 20.7 mph N/A   Unknown
8:56 PM 33.8 °F 23.9 °F 26.6 °F 75% 29.99 in - SW 15.0 mph 20.7 mph N/A   Overcast
9:16 PM 35.6 °F 26.6 °F 24.8 °F 65% 30.00 in - SW 13.8 mph 23.0 mph N/A   Overcast
9:36 PM 35.6 °F 25.9 °F 24.8 °F 65% 29.99 in - WSW 16.1 mph - N/A   Overcast
9:56 PM 35.6 °F 27.1 °F 24.8 °F 65% 29.99 in - SW 12.7 mph 21.9 mph N/A   Overcast
10:16 PM 33.8 °F 23.2 °F 26.6 °F 75% 29.99 in - SSW 17.3 mph 25.3 mph N/A   Overcast
10:36 PM 33.8 °F 23.5 °F 28.4 °F 81% 29.97 in - SSW 16.1 mph 21.9 mph N/A   Overcast
10:56 PM 33.8 °F 24.3 °F 28.4 °F 81% 29.96 in - SSW 13.8 mph - N/A   Mostly Cloudy
11:16 PM 33.8 °F 23.5 °F 28.4 °F 81% 29.94 in - SSW 16.1 mph 24.2 mph N/A   Overcast
11:36 PM 33.8 °F 24.8 °F 30.2 °F 87% 29.94 in - SSW 12.7 mph 21.9 mph N/A   Unknown
11:56 PM 35.6 °F 28.0 °F 30.2 °F 81% 29.93 in - South 10.4 mph - N/A   Overcast